Regional Weather Roundup
Issued by NWS

Home | Current Version | Previous Version | Graphics & Text | Print | Product List | Glossary On
Versions: 1 2 3 4 5 6 7 8 9 10 11 12 13 14 15 16 17 18 19 20 21 22 23 24 25 26 27 28 29 30 31 32 33 34 35 36 37 38 39 40 41 42 43 44 45 46 47 48 49 50
000
ASUS45 KCYS 202310
RWRWY

WYOMING REGIONAL WEATHER ROUNDUP
NATIONAL WEATHER SERVICE CHEYENNE WY
500 PM MDT FRI APR 20 2018

NOTE:  "FAIR" INDICATES FEW OR NO CLOUDS BELOW 12,000 FEET
WITH NO SIGNIFICANT WEATHER AND/OR OBSTRUCTIONS TO VISIBILITY.

WYZ001-210000-
YELLOWSTONE NATIONAL PARK

CITY           SKY/WX    TMP DP  RH WIND       PRES   REMARKS
LK YELLOWSTONE   N/A     51  19  28 NW8       30.12R
W YELLOWSTONE  NOT AVBL

$$
WYZ002>013-054>058-071-098>099-210000-
NORTHERN WYOMING

CITY           SKY/WX    TMP DP  RH WIND       PRES   REMARKS
JACKSON        FAIR      60  19  20 N18       30.01R
CODY           FAIR      60  30  32 N24G33    30.03R
GREYBULL       FAIR      67  37  33 NW16      29.94R
WORLAND        FAIR      65  35  33 NE9       29.96R
SHERIDAN       CLOUDY    59  33  37 CALM      30.05S
BUFFALO        CLOUDY    52  31  44 SE9       30.09R
GILLETTE       CLOUDY    50  35  56 SE9       30.07S
HULETT         MOCLDY    54  32  43 N3        30.08S
NEWCASTLE      LGT RAIN  41  36  81 SE14G28   30.14R

$$
WYZ014>020-022>026-101>103-210000-
CENTRAL WYOMING

CITY           SKY/WX    TMP DP  RH WIND       PRES   REMARKS
BIG PINEY      CLOUDY    58  21  24 E12G24    29.98R
PINEDALE       FAIR      55  23  28 E24G32    29.99R
DUBOIS         CLOUDY    52  21  30 SE8       30.02R
LANDER         CLOUDY    56  32  40 E15       29.98R
RIVERTON       CLOUDY    50  30  46 E20       30.01R
CASPER         CLOUDY    47  29  49 NE17      30.02R
DOUGLAS        CLOUDY    44  34  67 SE13      30.05R

$$
WYZ021-027>030-104>119-210000-
SOUTHERN WYOMING

CITY           SKY/WX    TMP DP  RH WIND       PRES   REMARKS
EVANSTON       CLOUDY    51  32  48 SW10      30.02S
KEMMERER       FAIR      55  27  33 NW13G24   29.99S
FORT BRIDGER   CLOUDY    51  33  50 SW12      30.03F
ROCK SPRINGS   CLOUDY    47  27  45 NE16G25   30.00R
DIXON          CLOUDY    49  29  46 N18G24    29.93R
RAWLINS        FAIR      43  31  62 N23       29.97R
SARATOGA       CLOUDY    45  28  53 N15G23    29.93R
LARAMIE        LGT SNOW  33  33 100 E10       29.97R FOG     WCI  25
CHEYENNE       LGT SNOW  34  34 100 E18       30.00S FOG     WCI  23
TORRINGTON     CLOUDY    39  34  82 SE15      30.08R WCI  31
PINE BLUFFS    CLOUDY    36  34  93 MISG      30.04R

$$



USA.gov is the U.S. government's official web portal to all federal, state and local government web resources and services.